Terug naar catalogus

COSMOS 2251 DEB

ActiefLEO
NORAD 38481·DEBRIS·🇷🇺 Russia

Gelanceerd Jun 16, 1993 vanaf Plesetsk Cosmodrome

Loading…

Volgende Passages (komende 24 uur)

TLE

VerouderendSource: Space-Track

Epoch: Sep 9, 2026, 08:19 UTC

1 38481U 93036BTR 26252.34660557  .00000919  00000-0  55751-3 0  9993
2 38481  73.9291 259.4575 0225128 146.3633 215.2026 13.95843356628359

Volg COSMOS 2251 DEB in realtime met AllMySat

Download on the App Store